Hourly Data Report for October 04, 2017

All times are specified in Local Standard Time (LST). Add 1 hour to adjust for Daylight Saving Time where and when it is observed.

MELITA
MANITOBA

49°16'52.600" N
100°59'10.900" W
445.90 m
501A7AR
71447
WEI

Download Data

Hourly Data (October 2017)
Hourly Data Report for October 4, 2017
Temp Definition
°C
Dew Point Temp Definition
°C
Rel Hum Definition
%
Wind Dir Definition
10's deg

Wind Spd Definition
km/h
Visibility Definition
km
Stn Press Definition
kPa
Hmdx Definition


Wind Chill Definition


Weather Definition


TIME
00:00 6.4 3.7 83 28 10   97.05     LegendNANA
01:00 6.1 3.9 86 28 9   97.10     LegendNANA
02:00 6.5 3.9 83 27 10   97.14     LegendNANA
03:00 5.8 3.5 85 27 13   97.16     LegendNANA
04:00 3.9 1.8 86 26 14   97.17     LegendNANA
05:00 4.8 1.7 80 27 20   97.23     LegendNANA
06:00 4.8 2.1 83 27 17   97.21     LegendNANA
07:00 4.5 2.7 88 26 12   97.20     LegendNANA
08:00 4.9 2.9 87 25 11   97.21     LegendNANA
09:00 5.7 2.8 82 23 16   97.18     LegendNANA
10:00 6.5 2.3 75 26 19   97.15     LegendNANA
11:00 7.4 2.8 73 25 18   97.14     LegendNANA
12:00 7.6 2.0 68 25 19   97.08     LegendNANA
13:00 7.7 1.8 66 24 21   97.01     LegendNANA
14:00 8.5 1.6 62 25 21   96.92     LegendNANA
15:00 10.8 2.0 55 26 18   96.87     LegendNANA
16:00 11.9 1.6 49 26 17   96.79     LegendNANA
17:00 11.8 1.6 50 24 13   96.72     LegendNANA
18:00 10.2 2.1 57 22 5   96.70     LegendNANA
19:00 7.8 1.5 64 21 7   96.73     LegendNANA
20:00 6.2 1.2 70 20 8   96.75     LegendNANA
21:00 4.7 1.2 78 23 8   96.77     LegendNANA
22:00 1.8 -0.1 87 29 4   96.78     LegendNANA
23:00 2.4 -0.3 82 25 7   96.76     LegendNANA

Notes on Data Quality.

Legend

  • E = Estimated
  • M = Missing
  • NA = Not Available
  • ‡ = Partner data that is not subject to review by the National Climate Archives
Date modified: